User: anonymous   Login
Location: St. Louis
(38.6270°N, 90.1994°W)
Time: 16:33:29
(UTC-05:00)
Language:

deb Delta - Orbit

View from above orbital plane
View from above orbital plane
View from above satellite
View from above satellite

Ground track
Ground track

The orbit data is extracted from the following two-line orbital elements,

1 21284U 75052V   22268.77245187  .00000043  00000-0  17692-3 0  9992
2 21284  99.8318  25.1395 0076814   4.9392 123.8330 13.30954222524580
Epoch (UTC): 25 September 2022 18:32:19
Eccentricity: 0.0076814
inclination: 99.8318°
perigee height: 1085 km
apogee height: 1201 km
right ascension of ascending node: 25.1395°
argument of perigee: 4.9392°
revolutions per day: 13.30954222
mean anomaly at epoch: 123.8330°
orbit number at epoch: 52458

The dashed part of the orbit path shows where the satellite is in the earth's shadow,  

DLR